When you browse on this site, cookies collect data to enhance your experience and personalize the content and advertising you see.
Visit our Privacy Policy to learn more. By continuing to use the site, you agree to this use of cookies and data.
  • în România
  • Lista ţărilor
  • Pe 7 zile
  • Temperatura apei
  • Hartă satelitară
  • Meteo pe hartă
  • Widget-uri
  • user-avatar
    Intrare

    Meteo pe oră la Арнювиль ле Гонес

    Astăzi, 20 Iulie, Sâmbătă

    Timp Temperatura Precipitaţii Vânt Presiune Umiditate
    00:00 +21°C° 0 mm 2 m/s 753 mmHg 68%
    01:00 +21°C° 0 mm 2 m/s 753 mmHg 70%
    02:00 +20°C° 0 mm 2 m/s 752 mmHg 72%
    03:00 +20°C° 0 mm 3 m/s 752 mmHg 73%
    04:00 +20°C° 0 mm 3 m/s 752 mmHg 73%
    05:00 +21°C° 0 mm 3 m/s 752 mmHg 72%
    06:00 +21°C° 0 mm 4 m/s 752 mmHg 71%
    07:00 +22°C° 0 mm 4 m/s 752 mmHg 65%
    08:00 +25°C° 0 mm 4 m/s 753 mmHg 58%
    09:00 +26°C° 0 mm 5 m/s 753 mmHg 52%
    10:00 +26°C° 0.2 mm 5 m/s 753 mmHg 55%
    11:00 +26°C° 0.2 mm 5 m/s 753 mmHg 58%
    12:00 +26°C° 0.2 mm 6 m/s 753 mmHg 61%
    13:00 +27°C° 0.2 mm 5 m/s 754 mmHg 59%
    14:00 +27°C° 0.2 mm 5 m/s 754 mmHg 56%
    15:00 +28°C° 0.2 mm 5 m/s 754 mmHg 54%
    16:00 +27°C° 0.1 mm 5 m/s 754 mmHg 56%
    17:00 +27°C° 0.1 mm 4 m/s 754 mmHg 58%
    18:00 +26°C° 0.1 mm 4 m/s 755 mmHg 61%
    19:00 +24°C° 0.1 mm 3 m/s 755 mmHg 64%
    20:00 +22°C° 0.1 mm 3 m/s 756 mmHg 68%
    21:00 +20°C° 0.1 mm 2 m/s 757 mmHg 72%
    22:00 +20°C° 0 mm 2 m/s 757 mmHg 73%
    23:00 +19°C° 0 mm 2 m/s 757 mmHg 75%

    Mâine, 21 Iulie, Duminică

    Timp Temperatura Precipitaţii Vânt Presiune Umiditate
    00:00 +20°C° 0 mm 1 m/s 758 mmHg 77%
    01:00 +19°C° 0 mm 1 m/s 758 mmHg 79%
    02:00 +19°C° 0 mm 1 m/s 758 mmHg 80%
    03:00 +19°C° 0 mm 1 m/s 758 mmHg 82%
    04:00 +19°C° 0 mm 1 m/s 759 mmHg 81%
    05:00 +19°C° 0 mm 1 m/s 759 mmHg 79%
    06:00 +20°C° 0 mm 1 m/s 759 mmHg 78%
    07:00 +21°C° 0 mm 1 m/s 760 mmHg 70%
    08:00 +23°C° 0 mm 1 m/s 760 mmHg 63%
    09:00 +24°C° 0 mm 1 m/s 761 mmHg 55%
    10:00 +26°C° 0 mm 1 m/s 761 mmHg 51%
    11:00 +27°C° 0 mm 1 m/s 761 mmHg 48%
    12:00 +28°C° 0 mm 2 m/s 761 mmHg 44%
    13:00 +28°C° 0 mm 2 m/s 761 mmHg 43%
    14:00 +28°C° 0 mm 2 m/s 761 mmHg 42%
    15:00 +29°C° 0 mm 2 m/s 761 mmHg 41%
    16:00 +28°C° 0 mm 2 m/s 761 mmHg 45%
    17:00 +27°C° 0 mm 3 m/s 761 mmHg 48%
    18:00 +27°C° 0 mm 3 m/s 761 mmHg 52%
    19:00 +25°C° 0 mm 3 m/s 761 mmHg 58%
    20:00 +24°C° 0 mm 2 m/s 762 mmHg 64%
    21:00 +21°C° 0 mm 2 m/s 762 mmHg 70%
    22:00 +21°C° 0 mm 2 m/s 762 mmHg 72%
    23:00 +20°C° 0 mm 2 m/s 762 mmHg 74%

    Poimâine, 22 Iulie, Luni

    Timp Temperatura Precipitaţii Vânt Presiune Umiditate
    00:00 +20°C° 0 mm 2 m/s 762 mmHg 76%
    01:00 +20°C° 0 mm 1 m/s 762 mmHg 77%
    02:00 +20°C° 0 mm 1 m/s 762 mmHg 78%
    03:00 +20°C° 0 mm 1 m/s 762 mmHg 78%
    04:00 +20°C° 0 mm 1 m/s 762 mmHg 76%
    05:00 +21°C° 0 mm 1 m/s 762 mmHg 74%
    06:00 +21°C° 0 mm 1 m/s 762 mmHg 72%
    07:00 +23°C° 0 mm 1 m/s 762 mmHg 65%
    08:00 +25°C° 0 mm 1 m/s 762 mmHg 58%
    09:00 +27°C° 0 mm 2 m/s 762 mmHg 51%
    10:00 +28°C° 0 mm 2 m/s 762 mmHg 47%
    11:00 +30°C° 0 mm 2 m/s 762 mmHg 42%
    12:00 +31°C° 0 mm 2 m/s 762 mmHg 38%
    13:00 +32°C° 0 mm 2 m/s 761 mmHg 36%
    14:00 +32°C° 0 mm 2 m/s 761 mmHg 35%
    15:00 +34°C° 0 mm 2 m/s 761 mmHg 34%
    16:00 +33°C° 0 mm 3 m/s 760 mmHg 37%
    17:00 +31°C° 0 mm 3 m/s 760 mmHg 41%
    18:00 +30°C° 0 mm 3 m/s 760 mmHg 44%
    19:00 +29°C° 0 mm 3 m/s 760 mmHg 49%
    20:00 +27°C° 0 mm 3 m/s 760 mmHg 53%
    21:00 +25°C° 0 mm 3 m/s 761 mmHg 57%
    22:00 +24°C° 0 mm 3 m/s 760 mmHg 58%
    23:00 +24°C° 0 mm 3 m/s 760 mmHg 59%

    23 Iulie, Marţi

    Timp Temperatura Precipitaţii Vânt Presiune Umiditate
    00:00 +23°C° 0 mm 2 m/s 760 mmHg 60%
    01:00 +21°C° 0 mm 2 m/s 760 mmHg 63%
    02:00 +21°C° 0 mm 2 m/s 759 mmHg 65%
    03:00 +20°C° 0 mm 2 m/s 759 mmHg 68%
    04:00 +21°C° 0 mm 2 m/s 759 mmHg 66%
    05:00 +21°C° 0 mm 2 m/s 759 mmHg 65%
    06:00 +23°C° 0 mm 2 m/s 759 mmHg 64%
    07:00 +25°C° 0 mm 2 m/s 759 mmHg 57%
    08:00 +27°C° 0 mm 2 m/s 759 mmHg 51%
    09:00 +29°C° 0 mm 2 m/s 759 mmHg 44%
    10:00 +31°C° 0 mm 2 m/s 758 mmHg 40%
    11:00 +32°C° 0 mm 2 m/s 758 mmHg 36%
    12:00 +35°C° 0 mm 2 m/s 757 mmHg 32%
    13:00 +36°C° 0 mm 2 m/s 757 mmHg 30%
    14:00 +36°C° 0 mm 2 m/s 757 mmHg 28%
    15:00 +37°C° 0 mm 2 m/s 756 mmHg 27%
    16:00 +36°C° 0 mm 2 m/s 756 mmHg 30%
    17:00 +36°C° 0 mm 2 m/s 756 mmHg 32%
    18:00 +35°C° 0 mm 2 m/s 755 mmHg 35%
    19:00 +32°C° 0 mm 2 m/s 756 mmHg 39%
    20:00 +31°C° 0 mm 2 m/s 756 mmHg 43%
    21:00 +29°C° 0 mm 2 m/s 756 mmHg 46%
    22:00 +28°C° 0 mm 2 m/s 756 mmHg 50%
    23:00 +27°C° 0 mm 2 m/s 756 mmHg 54%

    24 Iulie, Miercuri

    Timp Temperatura Precipitaţii Vânt Presiune Umiditate
    00:00 +27°C° 0 mm 2 m/s 756 mmHg 58%
    01:00 +26°C° 0 mm 2 m/s 755 mmHg 59%
    02:00 +26°C° 0 mm 2 m/s 755 mmHg 61%
    03:00 +26°C° 0 mm 2 m/s 755 mmHg 63%
    04:00 +26°C° 0 mm 2 m/s 755 mmHg 61%
    05:00 +26°C° 0 mm 2 m/s 755 mmHg 59%
    06:00 +27°C° 0 mm 2 m/s 755 mmHg 56%
    07:00 +29°C° 0 mm 2 m/s 755 mmHg 51%
    08:00 +31°C° 0 mm 2 m/s 755 mmHg 46%
    09:00 +34°C° 0 mm 2 m/s 755 mmHg 41%
    10:00 +36°C° 0 mm 2 m/s 755 mmHg 36%
    11:00 +37°C° 0 mm 2 m/s 755 mmHg 31%
    12:00 +39°C° 0 mm 2 m/s 755 mmHg 26%
    13:00 +40°C° 0 mm 2 m/s 755 mmHg 25%
    14:00 +41°C° 0 mm 2 m/s 754 mmHg 24%
    15:00 +41°C° 0 mm 2 m/s 754 mmHg 23%
    16:00 +41°C° 0 mm 2 m/s 754 mmHg 24%
    17:00 +40°C° 0 mm 1 m/s 754 mmHg 26%
    18:00 +40°C° 0 mm 1 m/s 754 mmHg 28%
    19:00 +36°C° 0 mm 1 m/s 754 mmHg 31%
    20:00 +35°C° 0 mm 2 m/s 754 mmHg 35%
    21:00 +33°C° 0 mm 3 m/s 754 mmHg 39%
    22:00 +32°C° 0 mm 2 m/s 754 mmHg 38%
    23:00 +32°C° 0 mm 2 m/s 754 mmHg 37%

    25 Iulie, Joi

    Timp Temperatura Precipitaţii Vânt Presiune Umiditate
    00:00 +32°C° 0 mm 2 m/s 754 mmHg 36%
    01:00 +31°C° 0 mm 2 m/s 754 mmHg 39%
    02:00 +30°C° 0 mm 2 m/s 754 mmHg 43%
    03:00 +29°C° 0 mm 3 m/s 753 mmHg 46%
    04:00 +29°C° 0 mm 3 m/s 754 mmHg 47%
    05:00 +30°C° 0 mm 3 m/s 754 mmHg 47%
    06:00 +30°C° 0 mm 3 m/s 754 mmHg 48%
    07:00 +33°C° 0.2 mm 3 m/s 754 mmHg 43%
    08:00 +34°C° 0.2 mm 3 m/s 754 mmHg 39%
    09:00 +36°C° 0.2 mm 3 m/s 754 mmHg 34%
    10:00 +38°C° 0 mm 3 m/s 754 mmHg 30%
    11:00 +40°C° 0 mm 3 m/s 754 mmHg 26%
    12:00 +43°C° 0 mm 3 m/s 754 mmHg 22%
    13:00 +43°C° 0 mm 3 m/s 754 mmHg 20%
    14:00 +44°C° 0 mm 3 m/s 753 mmHg 19%
    15:00 +44°C° 0 mm 3 m/s 753 mmHg 18%
    16:00 +42°C° 0 mm 3 m/s 753 mmHg 22%
    17:00 +40°C° 0 mm 3 m/s 753 mmHg 25%
    18:00 +38°C° 0 mm 2 m/s 753 mmHg 29%
    19:00 +36°C° 0 mm 3 m/s 753 mmHg 37%
    20:00 +33°C° 0 mm 3 m/s 754 mmHg 45%
    21:00 +30°C° 0 mm 3 m/s 754 mmHg 53%
    22:00 +28°C° 0 mm 3 m/s 754 mmHg 58%
    23:00 +27°C° 0 mm 4 m/s 754 mmHg 62%
    Arată mai mult